Weather History for KWVI - October, 2010

Change the Weather History Date:

Sunday, October 10, 2010

  Actual Average Record
Temperature  
Mean Temperature 65 °F 61 °F  
Max Temperature 77 °F 73 °F 92 °F (1999)
Min Temperature 52 °F 49 °F 42 °F (2008)
Degree Days  
Heating Degree Days 0    
Month to date heating degree days 33  
Since 1 July heating degree days 365  
Cooling Degree Days 0    
Month to date cooling degree days 0  
Year to date cooling degree days 111  
Growing Degree Days 14 (Base 50)    
Moisture  
Dew Point 52 °F    
Average Humidity 72    
Maximum Humidity 100    
Minimum Humidity 43    
Precipitation  
Precipitation 0.00 in - - ()
Month to date precipitation T  
Year to date precipitation 11.73  
Since 1 July precipitation 0.01  
Sea Level Pressure  
Sea Level Pressure 30.07 in    
Wind  
Wind Speed 3 mph (South)    
Max Wind Speed 24 mph    
Max Gust Speed 174 mph    
Visibility 9 miles    
Events      
T = Trace of Precipitation, MM = Missing Value Source: NWS Daily Summary

Daily Weather History Graph

Daily Weather History Graph

Search for Another Location

Airport or City:

Trip Planner

Search our weather history database for the weather conditions in past years. The results will help you decide how hot, cold, wet, or windy it might be!

Date:

Astronomy

Oct. 10, 2010 Rise Set
Actual Time 7:10 AM PDT 6:37 PM PDT
Civil Twilight 6:44 AM PDT 7:03 PM PDT
Nautical Twilight 6:14 AM PDT 7:33 PM PDT
Astronomical Twilight 5:44 AM PDT 8:03 PM PDT
Moon 10:40 AM PDT (10/10) 8:32 PM PDT (10/10)
Length of Visible Light 12h 18m
Length of Day
11h 26m
Waxing Crescent, 12% of the Moon is Illuminated
Oct 10
Waxing Crescent
Oct 14
First Quarter
Oct 22
Full
Oct 30
Last Quarter
Nov 5
New

Hourly Weather History & Observations

Time (PDT) Temp. Dew Point Humidity Pressure Visibility Wind Dir Wind Speed Gust Speed Precip Events Conditions
12:53 AM 54.0 °F 50.0 °F 86% 30.17 in 10.0 mi Calm Calm - N/A   Clear
1:53 AM 55.9 °F 51.1 °F 84% 30.17 in 10.0 mi Calm Calm - N/A   Clear
2:53 AM 54.0 °F 48.9 °F 83% 30.16 in 10.0 mi Calm Calm - N/A   Clear
3:53 AM 52.0 °F 48.9 °F 89% 30.14 in 10.0 mi Calm Calm - N/A   Clear
4:53 AM 54.0 °F 48.9 °F 83% 30.12 in 10.0 mi Calm Calm - N/A   Clear
5:53 AM 54.0 °F 48.9 °F 83% 30.12 in 10.0 mi NW 3.5 mph - N/A   Clear
6:53 AM 52.0 °F 48.9 °F 89% 30.13 in 10.0 mi Calm Calm - N/A   Clear
7:53 AM 55.0 °F 50.0 °F 83% 30.14 in 10.0 mi Calm Calm - N/A   Clear
8:53 AM 60.1 °F 51.1 °F 72% 30.14 in 10.0 mi Calm Calm - N/A   Clear
9:53 AM 64.0 °F 52.0 °F 65% 30.14 in 10.0 mi Calm Calm - N/A   Clear
10:53 AM 69.1 °F 53.1 °F 57% 30.13 in 10.0 mi Calm Calm - N/A   Clear
11:53 AM 72.0 °F 54.0 °F 53% 30.10 in 10.0 mi SSE 5.8 mph - N/A   Clear
12:53 PM 75.0 °F 53.1 °F 46% 30.08 in 10.0 mi South 8.1 mph - N/A   Clear
1:53 PM 75.9 °F 51.1 °F 42% 30.05 in 10.0 mi South 6.9 mph - N/A   Clear
2:53 PM 73.0 °F 52.0 °F 48% 30.03 in 10.0 mi SSE 8.1 mph - N/A   Clear
3:53 PM 70.0 °F 55.0 °F 59% 30.01 in 10.0 mi SSE 8.1 mph - N/A   Clear
4:53 PM 66.0 °F 55.9 °F 70% 30.00 in 10.0 mi South 5.8 mph - N/A   Clear
5:53 PM 66.0 °F 55.9 °F 70% 29.99 in 10.0 mi South 4.6 mph - N/A   Clear
6:53 PM 61.0 °F 55.0 °F 81% 29.99 in 10.0 mi South 4.6 mph - N/A   Clear
7:53 PM 57.9 °F 54.0 °F 87% 30.00 in 10.0 mi Calm Calm - N/A   Clear
8:53 PM 59.0 °F 55.0 °F 87% 30.00 in 10.0 mi SSE 3.5 mph - N/A   Clear
9:53 PM 57.0 °F 54.0 °F 89% 30.01 in 10.0 mi Calm Calm - N/A   Clear
10:53 PM 57.0 °F 54.0 °F 89% 30.00 in 10.0 mi Calm Calm - N/A   Clear
11:30 PM 53.6 °F 53.6 °F 100% 30.00 in 10.0 mi Variable 5.8 mph 31.1 mph N/A   Clear
11:45 PM 53.6 °F 51.8 °F 94% 30.00 in 7.0 mi Calm Calm - N/A   Scattered Clouds
11:53 PM 54.0 °F 53.1 °F 97% 30.00 in 2.0 mi South 3.5 mph - N/A   Mostly Cloudy
11:55 PM 55.4 °F 53.6 °F 94% 30.00 in 1.2 mi SSW 3.5 mph - N/A   Mostly Cloudy